Regional Weather Roundup
Issued by NWS

Home | Current Version | Previous Version | Graphics & Text | Print | Product List | Glossary On
Versions: 1 2 3 4 5 6 7 8 9 10 11 12 13 14 15 16 17 18 19 20 21 22 23 24 25 26 27 28 29 30 31 32 33 34 35 36 37 38 39 40 41 42 43 44 45 46 47 48 49 50
000
ASUS45 KPSR 042010
RWRAZ

ARIZONA HOURLY REGIONAL WEATHER ROUNDUP
NATIONAL WEATHER SERVICE PHOENIX AZ
100 PM MST WED MAY 04 2016

NOTE: FAIR INDICATES FEW OR NO CLOUDS BELOW 12,000 FEET WITH NO
SIGNIFICANT WEATHER AND/OR OBSTRUCTIONS TO VISIBILITY.

AZZ001>003-036-042100-
NORTHWEST ARIZONA

CITY           SKY/WX    TMP DP  RH WIND       PRES   REMARKS
BULLHEAD CITY  SUNNY     95  28   9 S16       29.83F
KINGMAN        SUNNY     88  23   9 SE20G37   29.97F
$$

AZZ004>008-015-016-018-042100-
NORTH CENTRAL ARIZONA

CITY           SKY/WX    TMP DP  RH WIND       PRES   REMARKS
GRAND CANYON   SUNNY     73  22  14 S15G23    30.20F
WILLIAMS       SUNNY     72  25  17 S20G33    30.28F
PRESCOTT       SUNNY     79  25  13 S14G23    30.10F
FLAGSTAFF      SUNNY     70  27  20 S16G28    30.24S
PAYSON         SUNNY     79  28  15 S9G15     30.16F
PAGE           SUNNY     78  31  17 VRB5      30.09F
$$

AZZ009>014-017-042100-
NORTHEAST ARIZONA

CITY           SKY/WX    TMP DP  RH WIND       PRES   REMARKS
WINSLOW        SUNNY     83  25  12 SE12G24   30.12F
SAINT JOHNS    SUNNY     78  23  13 VRB6      30.16F
WINDOW ROCK    MOSUNNY   71  25  17 VRB3      30.27F
SHOW LOW       SUNNY     72  21  15 S12G21    30.23F
$$

AZZ023-042100-
GREATER PHOENIX AREA

CITY           SKY/WX    TMP DP  RH WIND       PRES   REMARKS
PHOENIX        MOSUNNY   99  30   9 S10G22    29.83F
BUCKEYE        SUNNY     97  28   9 SE13      29.84F
GLENDALE       SUNNY     99  30   9 E8        29.85F
LUKE AFB       SUNNY     98  28   8 E13G24    29.82F
DEER VALLEY    SUNNY     96  28   9 SE15G24   29.86F
SCOTTSDALE     SUNNY     97  23   7 SE9G21    29.88F
MESA-GATEWAY   SUNNY     97  30   9 SE13G21   29.87F
CHANDLER       SUNNY     99  23   6 SE12G17   29.85F
$$

AZZ027-028-042100-
SOUTHWEST MARICOPA COUNTY AND PINAL COUNTY

CITY           SKY/WX    TMP DP  RH WIND       PRES   REMARKS
CASA GRANDE    SUNNY     99  34  10 SE6G23    29.87F
GILA BEND      SUNNY     99  24   7 SW10      29.80F
$$

AZZ503-504-507>509-042100-
SOUTHEAST ARIZONA

CITY           SKY/WX    TMP DP  RH WIND       PRES   REMARKS
TUCSON         SUNNY     94  21   7 MISG      29.93F
DAVIS-MONTHAN  MOSUNNY   94  25   8 SE12G21   29.92F
NOGALES        SUNNY     92  23   8 SE13G21   30.01F
SIERRA VISTA   SUNNY     86  25  10 E15G28    30.10F
DOUGLAS        SUNNY     88  28  11 SE15G25   30.07F
SAFFORD        SUNNY     90  28  11 SE16G30   30.04F
$$

AZZ020-021-025-026-031-042100-
SOUTHWEST ARIZONA

CITY           SKY/WX    TMP DP  RH WIND       PRES   REMARKS
YUMA           MOSUNNY   96  34  11 SW10G18   29.79F
$$

CAZ031-033-041-043-047-048-061-042100-
SOUTHERN CALIFORNIA

CITY           SKY/WX    TMP DP  RH WIND       PRES   REMARKS
DOWNTOWN L.A.  MOSUNNY   69  56  62 VRB3      29.92F
L.A. AIRPORT   PTSUNNY   64  54  69 W12       29.95S
SAN DIEGO      PTSUNNY   66  53  63 W5        29.96F
BURBANK        MOSUNNY   67  54  63 S8        29.92F
ONTARIO        MOSUNNY   73  52  47 VRB6      29.91F
RIVERSIDE      MOSUNNY   74  52  46 VRB5      29.91F
PALM SPRINGS   SUNNY     95  36  12 SE13G21   29.80F
EL CENTRO NAS  SUNNY     95  33  11 VRB7      29.79F
IMPERIAL       SUNNY     96  34  11 E8G17     29.77F
BLYTHE         SUNNY     97  33  10 S13       29.79F
NEEDLES        SUNNY     98  29   8 S14G26    29.82F
$$

NVZ020-UTZ003-042100-
SOUTHERN NEVADA-UTAH

CITY           SKY/WX    TMP DP  RH WIND       PRES   REMARKS
LAS VEGAS      MOSUNNY   86  34  15 CALM      29.87F
SALT LAKE CITY PTSUNNY   80  27  14 S23G31    30.07F
$$

NMZ009-TXZ055-042100-
NEW MEXICO-WEST TEXAS

CITY           SKY/WX    TMP DP  RH WIND       PRES   REMARKS
ALBUQUERQUE    MOSUNNY   75  27  17 W6        30.26F
EL PASO        MOSUNNY   82  24  12 E10       30.16F
$$


........................KEY........................
SKY/WX - SKY CONDITION/WEATHER
TMP    - TEMPERATURE IN FAHRENHEIT
DP     - DEW POINT IN FAHRENHEIT
RH     - RELATIVE HUMIDITY IN PERCENT
WIND   - DIRECTION AND SPEED IN MILES PER HOUR (MPH)
VRB    - VARIABLE WIND DIRECTION
PRES   - MEAN SEA LEVEL PRESSURE IN INCHES OF MERCURY
         F - FALLING PRESSURE   R - RISING PRESSURE
         S - STEADY PRESSURE
VSB    - VISIBILITY IN MILES
HX     - HEAT INDEX IN FAHRENHEIT
WCI    - WIND CHILL INDEX IN FAHRENHEIT
TC     - TEMPERATURE IN CELSIUS WHICH IS ALSO KNOWN AS
         TEMPERATURE IN CENTIGRADE
AFB    - AIR FORCE BASE
         LUKE AFB IS LUKE AIR FORCE BASE
         DAVIS-MONTHAN IS DAVIS-MONTHAN AIR FORCE BASE
NAS    - NAVAL AIR STATION
         EL CENTRO NAS IS EL CENTRO NAVAL AIR STATION
N/A    - NOT AVAILABLE




USA.gov is the U.S. government's official web portal to all federal, state and local government web resources and services.